User: anonymous   Login
Location: Brno
(49.2000°N, 16.6330°E)
Time: 22:23:05
(UTC+01:00)
Language:

Meteor 1-4 Rocket - Orbit

View from above orbital plane
View from above orbital plane
View from above satellite
View from above satellite

Ground track
Ground track

The orbit data is extracted from the following two-line orbital elements,

1 04394U 70037B   14327.47163115  .00008075  00000-0  34125-3 0  7336
2 04394 081.2463 031.0524 0047503 073.2440 287.3997 15.22036601421929
Epoch (UTC): 23 November 2014 11:19:08
Eccentricity: 0.0047503
inclination: 81.2463°
perigee height: 467 km
apogee height: 532 km
right ascension of ascending node: 31.0524°
argument of perigee: 73.2440°
revolutions per day: 15.22036601
mean anomaly at epoch: 287.3997°
orbit number at epoch: 42192

The dashed part of the orbit path shows where the satellite is in the earth's shadow,  

DLR